Location: Casone le Fosse
(44.6547°N, 12.1103°E)
Time: 11:23:43
(UTC+00:00)

Cosmos 1340 - Pass Details

Date: 29 October 2020
Orbit: 501 x 504 km, 81.2° (Epoch: 28 November)

Event Time Altitude Azimuth Distance (km) Brightness Sun altitude
Rises 17:21:20 0° 346° (NNW) 2,616 6.4 -14.2°
Reaches altitude 10° 17:23:29 10° 343° (NNW) 1,727 5.5 -14.6°
Maximum altitude 17:27:13 60° 263° (W) 581 3.2 -15.3°
Drops below altitude 10° 17:30:56 10° 183° (S) 1,712 5.4 -15.9°
Sets 17:33:03 0° 179° (S) 2,592 6.3 -16.3°
